Kuchera_Ratio
0.0 0.0 0.0 0.0 0.0 0.0 0.0 0.0 0.0 0.0 0.0 0.0 0.0 0.0 0.0 0.0 0.0 0.0 0.0 0.0 0.0 0.0 0.0 0.0 0.0 0.0 0.0 0.0 0.0 0.0 0.0 0.0 0.0 0.0 0.0 0.0 0.0 0.0 0.0 0.0 0.0 0.0 0.0 0.0 0.0 0.0 0.0
0.0 0.0 0.0 0.0 0.0 0.0 0.0 0.0 0.0 0.0 0.0 0.0 0.0 0.0 0.0 0.0 0.0 0.0 0.0 0.0 0.0 0.0 0.0 0.0 0.0 0.0 0.0 0.0 0.0 0.0 0.0 0.0 0.0 0.0 0.0 0.0 0.0 0.0 0.0 0.0 0.0 0.0 0.0 0.0 0.0 0.0 0.0
0.0 0.0 0.0 0.0 0.0 0.0 0.0 0.0 0.0 0.0 0.0 0.0 0.0 0.0 0.0 0.0 0.0 0.0 0.0 0.0 0.0 0.0 0.0 0.0 0.0 0.0 0.0 0.0 0.0 0.0 0.0 0.0 0.0 0.0 0.0 0.0 0.0 0.0 0.0 0.0 0.0 0.0 0.0 0.0 0.0 0.0 0.0
0.0 0.0 0.0 0.0 0.0 0.0 0.0 0.0 0.0 0.0 0.0 0.0 0.0 0.0 0.0 0.0 0.0 0.0 0.0 0.0 0.0 0.0 0.0 0.0 0.0 0.0 0.0 0.0 0.0 0.0 0.0 0.0 0.0 0.0 0.0 0.0 0.0 0.0 0.0 0.0 0.0 0.0 0.0 0.0 0.0 0.0 0.0
0.0 0.0 0.0 0.0 0.0 0.0 0.0 0.0 0.0 0.0 0.0 0.0 0.0 0.0 0.0 0.0 0.0 0.0 0.0 0.0 0.0 0.0 0.0 0.0 0.0 0.0 0.0 0.0 0.0 0.0 0.0 0.0 0.0 0.0 0.0 0.0 0.0 0.0 0.0 0.0 0.0 0.0 1.0 0.0 0.0 0.0 0.0
0.0 0.0 0.0 0.0 0.0 0.0 0.0 0.0 0.0 0.0 0.0 0.0 0.0 0.0 0.0 0.0 0.0 0.0 0.0 0.0 0.0 0.0 0.0 0.0 0.0 0.0 0.0 0.0 0.0 0.0 0.0 0.0 0.0 0.0 0.0 0.0 0.0 0.0 0.0 0.0 6.4 2.2 2.2 0.0 0.4 0.0 0.0
0.0 0.0 0.0 0.0 0.0 0.0 0.0 0.0 0.0 0.0 0.0 0.0 0.0 0.0 0.0 0.0 0.0 0.0 0.0 0.0 0.0 0.0 0.0 0.0 0.0 0.0 0.0 0.0 0.0 0.0 0.0 0.0 0.0 0.0 0.0 0.0 0.0 0.2 0.0 0.0 0.0 0.0 0.0 2.0 0.0 0.0 0.0
0.0 0.0 0.0 0.0 0.0 0.0 0.0 0.0 0.0 0.0 0.0 0.0 0.0 0.0 0.0 0.0 0.0 0.0 0.0 0.0 0.0 0.0 0.0 0.0 0.0 0.0 0.0 0.0 0.0 0.0 0.0 0.0 0.0 0.0 0.0 0.0 2.6 0.0 0.0 0.0 0.0 0.0 3.8 3.2 0.0 0.0 0.0
0.0 0.0 0.0 0.0 0.0 0.0 0.0 0.0 0.0 0.0 0.0 0.0 0.0 0.0 0.0 0.0 0.0 0.0 0.0 0.0 0.0 0.0 0.0 0.0 0.0 0.0 0.0 0.0 0.0 0.0 0.0 0.0 0.0 0.2 0.0 2.2 0.0 0.0 0.0 0.0 1.4 0.2 4.0 3.0 3.2 0.0 0.0
0.0 0.0 0.0 0.0 0.0 0.0 0.0 0.0 0.0 0.0 0.0 0.0 0.0 0.0 0.0 0.0 0.0 0.0 0.0 0.0 0.0 0.0 0.2 0.0 0.0 0.0 0.0 0.0 0.0 0.0 0.0 0.0 0.0 0.6 0.0 0.6 0.0 0.0 0.2 2.6 0.0 5.6 0.0 0.0 0.8 2.8 10.0
0.0 0.0 0.0 0.0 0.0 0.0 0.0 0.0 0.0 0.0 0.0 0.0 0.0 0.0 0.0 0.0 0.0 0.0 0.0 0.0 0.0 0.0 9.2 0.0 0.0 0.0 0.0 0.0 0.0 0.0 0.0 0.0 0.0 0.0 0.0 0.0 0.8 1.0 2.6 0.2 0.0 2.0 0.0 0.0 0.0 3.2 4.4
0.0 0.0 0.0 0.0 0.0 0.0 0.0 0.0 0.0 0.0 0.0 0.0 0.0 0.0 0.0 0.0 0.0 0.0 0.0 0.0 0.0 1.4 10.9 0.4 0.0 0.0 0.0 0.0 0.0 0.0 0.0 0.0 0.0 0.0 0.0 0.0 0.0 0.0 0.0 0.0 0.0 0.0 0.0 0.0 0.0 4.0 13.3
0.0 0.0 0.0 0.0 0.0 0.0 0.0 0.0 0.0 0.0 0.0 0.0 0.0 0.0 0.0 0.0 0.0 0.0 0.0 0.0 3.8 9.6 0.0 3.2 1.2 0.0 0.0 1.4 0.0 0.0 0.6 1.0 3.0 7.4 6.8 2.4 0.6 0.0 0.0 0.8 0.0 0.0 4.6 12.1 12.9 13.7 12.7
0.0 0.0 0.0 0.0 0.0 0.0 0.0 0.0 0.0 0.0 0.0 0.0 0.0 0.0 0.0 0.0 0.0 0.0 0.0 1.2 10.4 3.8 3.2 0.0 0.0 0.2 4.0 2.2 2.8 2.0 3.6 5.2 0.8 2.0 8.0 10.2 9.2 0.0 0.0 0.0 0.0 2.4 2.2 9.8 16.3 13.7 11.2
0.0 0.0 0.0 0.0 0.0 0.0 0.0 0.0 0.0 0.0 0.0 0.0 0.0 0.0 0.0 0.0 0.0 0.0 0.0 9.1 4.4 3.6 0.0 1.4 1.6 6.4 7.4 4.0 4.6 5.8 5.8 4.8 1.0 0.2 9.6 9.2 9.2 0.0 0.0 0.0 0.0 2.0 6.0 0.0 7.8 5.6 12.4
0.0 0.0 0.0 0.0 0.0 0.0 0.0 0.0 0.0 0.0 0.0 0.0 0.0 0.0 0.0 0.0 0.0 0.0 4.6 5.0 2.4 0.0 0.0 0.0 9.0 5.6 12.1 8.6 9.6 8.0 7.4 0.0 0.4 0.0 0.0 4.2 10.8 0.0 0.0 0.0 0.0 0.0 0.0 7.6 6.0 15.3 15.7
0.0 0.0 0.0 0.0 0.0 0.0 0.0 0.0 0.0 0.0 0.0 0.0 0.0 1.2 0.0 0.0 0.0 0.8 12.0 5.2 0.0 0.0 0.0 1.4 6.0 8.2 8.8 11.2 10.0 8.4 7.0 0.0 0.0 0.0 0.0 0.8 6.2 2.6 0.0 0.4 1.4 2.0 3.4 1.2 1.0 6.2 13.5
0.0 0.0 0.0 0.0 0.0 0.0 0.0 0.0 0.0 0.0 0.0 0.0 0.0 7.8 0.0 0.0 4.8 7.0 7.1 0.0 0.0 0.0 0.0 0.0 0.0 3.8 8.2 9.6 9.4 10.6 9.2 2.6 0.0 0.0 3.0 0.0 5.8 10.8 4.8 0.0 0.0 0.0 0.0 0.0 9.0 9.8 7.0
0.0 0.0 0.0 0.0 0.0 0.0 0.0 0.0 0.0 0.0 0.0 0.0 2.8 3.2 0.0 0.0 11.2 9.6 2.0 0.0 0.0 0.0 0.0 0.0 3.0 2.8 6.4 11.5 12.2 12.3 8.0 0.0 0.0 0.0 0.8 0.6 6.8 12.4 7.8 0.8 0.0 1.6 0.0 0.6 0.0 3.0 12.5
0.0 0.0 0.0 0.0 0.0 0.0 0.0 0.0 0.0 0.0 0.0 0.0 3.8 10.2 2.2 0.0 2.2 3.2 3.4 3.0 2.8 0.0 0.0 0.0 3.0 4.0 8.0 12.5 12.0 12.0 9.4 0.0 0.0 0.0 0.0 0.0 5.4 10.4 14.5 12.9 9.2 10.4 4.2 0.0 2.0 9.6 13.4
0.0 0.0 0.0 0.0 0.0 0.0 0.0 0.0 0.0 0.0 0.0 0.0 2.6 7.3 0.0 9.4 6.2 2.8 1.0 1.0 3.6 4.2 0.0 0.0 4.0 2.4 7.2 12.3 12.6 11.9 9.0 3.0 0.0 0.0 0.0 0.0 8.4 7.6 8.0 8.6 9.0 12.0 10.0 7.6 10.8 10.4 13.2
0.0 0.0 0.0 0.0 0.0 0.0 0.0 0.0 0.0 0.0 0.0 0.0 2.2 3.8 1.6 3.0 1.4 2.0 2.2 3.2 3.6 3.6 2.2 4.2 3.4 2.2 4.2 6.2 5.6 9.4 6.2 4.6 4.0 0.0 0.6 0.0 7.4 7.2 11.2 7.2 8.8 13.3 12.1 10.8 9.0 10.8 12.9
0.0 0.0 0.0 0.0 0.0 0.0 0.0 0.0 0.0 0.0 0.0 0.0 0.4 0.0 0.0 4.2 4.0 3.6 5.4 3.8 3.6 1.4 0.0 0.0 0.1 2.2 5.0 2.8 0.0 0.0 0.0 0.0 0.0 2.2 4.8 4.8 6.4 7.2 12.5 7.8 7.8 13.5 13.3 12.4 11.0 9.8 9.2
0.0 0.0 0.0 0.0 0.0 0.0 0.0 0.0 0.0 0.0 0.0 0.0 0.0 0.0 0.6 9.4 3.6 4.2 1.2 0.0 2.2 0.4 3.2 0.0 0.0 1.2 0.0 0.0 0.0 0.0 1.6 1.6 1.2 0.6 0.0 4.6 6.8 6.4 10.2 9.6 16.6 12.4 7.0 8.2 11.6 10.6 9.2
0.0 0.0 0.0 0.0 0.0 0.0 0.0 0.0 0.0 0.0 0.0 0.0 0.0 0.0 0.0 9.6 3.2 2.2 1.4 3.4 2.2 0.6 2.0 0.6 0.0 0.0 0.0 0.0 1.4 4.0 4.4 3.8 2.6 1.0 0.0 0.6 5.8 9.0 12.2 13.1 12.5 11.2 10.4 11.0 11.2 13.2 8.8
0.0 0.0 0.0 0.0 0.0 0.0 0.0 0.0 0.0 0.0 0.0 0.0 0.0 0.0 0.0 1.9 5.8 0.0 3.4 1.6 5.8 6.0 4.4 2.2 0.0 0.0 0.0 2.6 4.8 10.6 12.4 8.4 8.6 4.6 0.0 1.4 2.4 7.8 9.2 13.5 15.9 13.2 8.2 3.4 3.2 14.2 8.4
0.0 0.0 0.0 0.0 0.0 0.0 0.0 0.0 0.0 0.0 0.0 0.0 0.0 0.0 0.0 5.8 2.4 0.0 4.0 4.8 3.0 4.8 6.6 5.4 4.0 2.8 0.8 7.2 9.4 10.4 10.8 5.2 12.2 12.2 11.2 8.8 8.6 13.0 11.8 13.6 13.3 10.2 7.4 2.6 13.8 13.5 8.4
0.0 0.0 0.0 0.0 0.0 0.0 0.0 0.0 0.0 0.0 0.0 0.0 0.0 0.0 0.0 4.8 2.4 0.0 0.0 3.3 4.0 4.0 8.6 5.2 6.9 5.4 8.0 10.4 8.8 10.6 10.6 8.4 9.6 7.8 10.2 12.1 12.7 13.3 12.4 14.1 15.8 7.4 6.8 10.8 9.6 6.8 6.8
0.0 0.0 0.0 0.0 0.0 0.0 0.0 0.0 0.0 0.0 0.0 0.0 0.0 0.0 0.0 0.0 1.4 0.0 0.0 0.0 0.0 0.0 3.6 4.8 4.8 5.8 4.6 8.4 8.0 7.4 10.0 9.4 9.0 14.4 4.2 12.4 9.0 11.6 12.3 13.3 9.6 8.6 9.2 5.2 3.4 6.0 7.4